Find Meteor-2

NORAD ID: 12456 Int'l Des: 1981-043 Owner: GUKOS/GMS Country: SU operational
LEOCIRCULARPOLAR

当前视图

正在加载3D地球...

About Meteor-2

Meteor-2 (NORAD 12456) is a satellite launched May 14, 1981 by GUKOS/GMS of SU. It operates in LEO, CIRCULAR, POLAR orbit with a mass of 1500.00 kg.

即将过境

Passes for default location (London). Set your location on the main map for personalized predictions.

高度历史

Loading altitude history...

两行轨道根数

1 12456U 81043A 26194.78740810 .00000031 00000-0 96986-5 0 9998
2 12456 81.2640 73.2138 0047971 55.5868 304.9824 14.11056518322807
Epoch: Jul 13, 2026 • Age: 12 hours

当前状态

高度 831.0 km
远地点 / 近地点 N/A
速度 7.46 km/s
星下点 58.43°N, 48.63°E
发射日期 May 14, 1981
运行时间 45.1 years
类型 other

技术详情

分类 Payload
质量 1500.00 kg
干质量 1500.00 kg
总质量 1500.00 kg
长度 4.50 m
直径 1.40 m
跨度 4.50 m
形状 Cyl + 2 Pan
制造商 VNIEM
平台类型 Meteor-2
阶段状态 In Orbit
所有者/国家 GUKOS/GMS/SU

Most Searched